Regional Weather Roundup
Issued by NWS Wilmington, NC

Home | Current Version | Previous Version | Text Only | Print | Product List | Glossary On
Versions: 1 2 3 4 5 6 7 8 9 10 11 12 13 14 15 16 17 18 19 20 21 22 23 24 25 26 27 28 29 30 31 32 33 34 35 36 37 38 39 40 41 42 43 44 45 46 47 48 49 50
000
ASUS42 KILM 061412
RWRILM
RWRILM
REGIONAL HOURLY WEATHER ROUNDUP
NATIONAL WEATHER SERVICE WILMINGTON NC
900 AM EST TUE DEC 06 2016

NOTE: "FAIR" INDICATES FEW OR NO CLOUDS BELOW 12,000 FEET WITH NO
SIGNIFICANT WEATHER AND/OR OBSTRUCTIONS TO VISIBILITY.

...............WFO WILMINGTON COUNTY WARNING AREA...............

......COASTAL NC AND SC COUNTIES......

CITY           SKY/WX    TMP DP  RH WIND       PRES   REMARKS
WILMINGTON     LGT RAIN  56  56 100 NE14      29.84F FOG
N MYRTLE BEACH LGT RAIN  59  59 100 NE12      29.80F FOG
MYRTLE BEACH   LGT RAIN  61  57  88 E18       29.81F FOG

......INLAND NC AND SC COUNTIES.......

CITY           SKY/WX    TMP DP  RH WIND       PRES   REMARKS
LUMBERTON      LGT RAIN  48  48 100 NE9       29.85F
ELIZABETHTOWN  LGT RAIN  49  49 100 CALM      29.86R
WHITEVILLE     LGT RAIN  51  50  95 NE8       29.82F
FLORENCE       LGT RAIN  48  48 100 N9        29.86R
DARLINGTON     LGT RAIN  47  46  97 E8        29.84F FOG
KINGSTREE      HVY RAIN  50  50 100 N6        29.84R
HARTSVILLE     CLOUDY    45  45 100 E9G18     29.83F
BENNETTSVILLE  LGT RAIN  50  48  93 NE12      29.84F
CONWAY         LGT RAIN  52  52 100 N3        29.82R
GEORGETOWN     NOT AVBL
MARION         DRIZZLE   46  46 100 N7        29.86R

....................REST OF NORTH CAROLINA......................

.........EASTERN NC.........

CITY           SKY/WX    TMP DP  RH WIND       PRES   REMARKS
CAPE HATTERAS  LGT RAIN  61  59  93 E14       29.92S FOG
JACKSONVILLE   RAIN      50  50 100 E10       29.88F FOG
MOREHEAD CITY  RAIN      58  57  97 E10       29.88F FOG
KENANSVILLE    LGT RAIN  48  48 100 NE5       29.88F
NEW BERN       LGT RAIN  52  50  93 NE9       29.91F
ELIZABETH CITY LGT RAIN  52  48  86 NE13      29.97F

.........CENTRAL NC.........

CITY           SKY/WX    TMP DP  RH WIND       PRES   REMARKS
RALEIGH DURHAM DRIZZLE   47  44  90 E12G21    29.91F
ROCKY MOUNT    LGT RAIN  47  47 100 NE8       29.93F FOG
ROANOKE RAPIDS NOT AVBL
FAYETTEVILLE   LGT RAIN  49  47  93 E10       29.86F
HOFFMAN        LGT RAIN  47  46  95 E7        29.86S

.........WESTERN NC.........

CITY           SKY/WX    TMP DP  RH WIND       PRES   REMARKS
CHARLOTTE      LGT RAIN  45  42  89 NE10      29.88R FOG
GREENSBORO     LGT RAIN  43  42  97 NE13      29.90F FOG
HICKORY        NOT AVBL
BOONE          NOT AVBL
ASHEVILLE      NOT AVBL

.....................REST OF SOUTH CAROLINA.....................

.........EASTERN SC.........

CITY           SKY/WX    TMP DP  RH WIND       PRES   REMARKS
CHARLESTON     LGT RAIN  61  58  90 NE6       29.80R
BEAUFORT MCAS  HVY RAIN  64  63  96 CALM      29.79S VSB 1/2
HILTON HEAD    CLOUDY    64  64 100 N7        29.79R

.........CENTRAL SC.........

CITY           SKY/WX    TMP DP  RH WIND       PRES   REMARKS
COLUMBIA       LGT RAIN  52  50  93 E10       29.80R
ORANGEBURG     RAIN      55  54  96 E7        29.80F FOG
SUMTER SHAW    LGT RAIN  49  48  95 E9        29.80F FOG

.........WESTERN SC.........

CITY           SKY/WX    TMP DP  RH WIND       PRES   REMARKS
GREENVILLE     NOT AVBL
ROCK HILL      LGT RAIN  45  44  97 NE5       29.87R FOG
ANDERSON       LGT RAIN  49  46  90 E16       29.77F FOG
CLEMSON        NOT AVBL
GREENWOOD      CLOUDY    49  47  93 NE12      29.79S FOG


...................COASTAL AND OFFSHORE REPORTS..................

................LOCAL PIERS AND NC RESERVE................


STATION/POSITION TIME  SKY/WX   TEMP    WIND        PRES    VSBY
                                AIR SEA DIR/SP/G
                 (UTC)          (F)     (DEG/KT/KT) (MB)    (MI)
JOHNY MRCER PIER 1348            58 62   40/ 21/ 24 1009.0F
NC RESRV MASNBRO 1245            59      70/ 11     1011.0
OCEAN CREST PIER NOT AVBL
SPRINGMAID  PIER NOT AVBL


................COASTAL AND OFFSHORE BUOYS................


STATION/POSITION TIME  SKY/WX   TEMP    WIND        PRES    VSBY
                                AIR SEA DIR/SP/G
                 (UTC)          (F)     (DEG/KT/KT) (MB)    (MI)
DIMNDSHOAL 41025 1350            67 76  100/ 21/ 25 1012.8F
WVE H/P(F/S)=  6/ 8 SWL H/P/D(F/S/D)=  3/ 70/12

CAPE LOOKOUT     1300            60      50/ 19/ 21 1011.8F
ONSLOW BAY 41036 NOT AVBL
ONSLOW BAY 41064 1308            60 70   90/ 21/ 27 1009.9F
ONSLOW BAY 41159 NOT AVBL
5SE WRITBC 41038 1308            59 62   80/ 16/ 23 1010.2
MASNBO INL 41110 1359               62                N/A
WVE H/P(F/S)=  6/ 6

WILM HARBR 41108 1356               62                N/A
WVE H/P(F/S)=  5/ 7

27SE WRITB 41037 1308            67 68  100/ 21/ 27 1010.0F
FRYING PAN 41013 1350            73 74  160/ 16/ 21 1008.5F
WVE H/P(F/S)=  7/ 7 SWL H/P/D(F/S/D)=  2/ 90/12

SUNST NRSH 41024 1308            58 60   70/ 17/ 25 1009.0F
CAPRS NRSH 41029 1308            60 61   30/ 12/ 19 1008.5
EDISTO     41004 1350            75 74  210/ 21/ 27 1007.6F
WVE H/P(F/S)=  6/ 7 SWL H/P/D(F/S/D)=  2/130/ 9



..........OFFSHORE BUOYS BEYOND 100 NM OFFSHORE...........
.....IN A TRIANGLE---HAT TO BERMUDA TO BAHAMAS TO HAT.....


STATION/POSITION TIME  SKY/WX   TEMP    WIND        PRES    VSBY
                                AIR SEA DIR/SP/G
                 (UTC)          (F)     (DEG/KT/KT) (MB)    (MI)
150E HAT   41001 NOT AVBL
W BERMUDA  41048 1350            73 73  230/ 19/ 23 1016.8R
WVE H/P(F/S)=  7/ 7 SWL H/P/D(F/S/D)=  2/ 30/11

ATLANTIC S 41049 1350            71 76  330/  4/  6 1022.0R
WVE H/P(F/S)=  7/11 SWL H/P/D(F/S/D)=  7/350/11

E BAHAMAS  41046 1350            77 78  120/  8/ 12 1020.6R
WVE H/P(F/S)=  6/10 SWL H/P/D(F/S/D)=  7/10

NE BAHAMAS 41047 1350            77 78  180/ 12/ 14 1019.5R
WVE H/P(F/S)=  4/10 SWL H/P/D(F/S/D)=  3/ 50/10

120E CANVRL41010 NOT AVBL

END



USA.gov is the U.S. government's official web portal to all federal, state and local government web resources and services.